This demonstration page uses our WeatherBlox Daily Observations layout. Learn more.

41.55636, -103.73856

Hourly Observations for May 29, 2019

Temp ( °F °C ) Dew Point ( °F °C ) Humidity (%) Winds ( mph kmh ) Pressure ( in mb ) Visibility ( mi km ) Precip ( " mm )
12:17 am 00:17 Cloudy with Light Rain 45 7.2 45 7.2 100 100 W 5 7 30 1016 7 11.265408 0.03 0.762
12:44 am 00:44 Cloudy with Light Rain 46 8 46 8 100 100 WNW 6 9 29.97 1015 8 12.874752 0 0
12:53 am 00:53 Cloudy with Light Rain 45 7.2 45 7.2 100 100 WNW 7 11 29.94 1014 7 11.265408 0.05 1.27
1:23 am 01:23 Cloudy with Light Rain 45 7.2 45 7.2 100 100 WNW 5 7 30 1016 6 9.656064 0.03 0.762
1:31 am 01:31 Cloudy with Light Rain 45 7.2 45 7.2 100 100 WNW 6 9 30 1016 7 11.265408 0.04 1.016
1:53 am 01:53 Cloudy with Light Rain 45 7.2 45 7.2 100 100 W 7 11 29.94 1014 6 9.656064 0.05 1.27
2:23 am 02:23 Cloudy with Light Rain 45 7.2 45 7.2 100 100 W 8 13 30 1016 8 12.874752 0.03 0.762
2:53 am 02:53 Cloudy with Light Rain 45 7.2 45 7.2 100 100 W 7 11 29.94 1014 10 16.09344 0.03 0.762
3:13 am 03:13 Cloudy with Light Rain 45 7.2 45 7.2 100 100 WNW 7 11 30 1016 10 16.09344 0.01 0.254
3:37 am 03:37 Cloudy 45 7.2 45 7.2 100 100 WNW 7 11 30 1016 10 16.09344 0.01 0.254
3:53 am 03:53 Cloudy 45 7.2 44 6.7 97 97 W 7 11 29.94 1014 10 16.09344 0.01 0.254
4:53 am 04:53 Cloudy 45 7.2 45 7.2 100 100 WNW 8 13 29.94 1014 10 16.09344 0 0
5:53 am 05:53 Mostly Sunny 45 7.2 44 6.7 97 97 WNW 9 15 29.94 1014 10 16.09344 0 0
6:53 am 06:53 Partly Cloudy 45 7.2 45 7.2 100 100 WNW 9 15 29.94 1014 10 16.09344 0 0
7:53 am 07:53 Mostly Cloudy 47 8.3 45 7.2 93 93 WNW 10 17 29.97 1015 10 16.09344 0 0
8:53 am 08:53 Sunny 48 8.9 46 7.8 93 93 WNW 9 15 29.97 1015 10 16.09344 0 0
9:53 am 09:53 Sunny 51 10.6 47 8.3 86 86 WNW 9 15 29.97 1015 10 16.09344 0 0
10:53 am 10:53 Sunny 55 12.8 45 7.2 69 69 NNW 9 15 29.97 1015 10 16.09344 0 0
11:53 am 11:53 Sunny 59 15 39 3.9 48 48 N 10 17 29.94 1014 10 16.09344 0 0
12:53 pm 12:53 Sunny 63 17.2 38 3.3 40 40 N 10 17 29.91 1013 10 16.09344 0 0
1:53 pm 13:53 Sunny 65 18.3 37 2.8 36 36 N 10 17 29.91 1013 10 16.09344 0 0
2:53 pm 14:53 Mostly Sunny 66 18.9 39 3.9 37 37 N 13 20 29.91 1013 10 16.09344 0 0
3:53 pm 15:53 Sunny 66 18.9 39 3.9 37 37 undefined N/A 29.91 1013 10 16.09344 0 0
4:53 pm 16:53 Mostly Cloudy 63 17.2 36 2.2 37 37 NNE 9 15 29.91 1013 10 16.09344 0 0
5:53 pm 17:53 Sunny 64 17.8 38 3.3 38 38 NNW 9 15 29.91 1013 10 16.09344 0 0
6:53 pm 18:53 Sunny 63 17.2 42 5.6 47 47 NNE 7 11 29.91 1013 10 16.09344 0 0
7:53 pm 19:53 Sunny 57 13.9 46 7.8 67 67 NNE 6 9 29.94 1014 10 16.09344 0 0
8:53 pm 20:53 Mostly Clear 54 12.2 46 7.8 75 75 undefined N/A 29.97 1015 10 16.09344 0 0
9:53 pm 21:53 Clear 50 10 46 7.8 86 86 NNE 6 9 30 1016 10 16.09344 0 0
10:53 pm 22:53 Mostly Cloudy 49 9.4 46 7.8 90 90 NNW 5 7 29.97 1015 10 16.09344 0 0
11:53 pm 23:53 Mostly Cloudy 47 8.3 45 7.2 93 93 WNW 7 11 29.97 1015 10 16.09344 0 0

Powered by AerisWeather